Total_Precipitation_Accumulation
0.10 0.22 0.51 0.58 0.54 0.54 0.62 0.62 0.61 0.59 0.60 0.64 0.65 0.67 0.65 0.62 0.58 0.56 0.56 0.58 0.57 0.63 0.75 0.85 0.88 0.84 0.76 0.72 0.70 0.67 0.64 0.56 0.53 0.47 0.45 0.48 0.46 0.39 0.32 0.29 0.25 0.36 0.47
0.10 0.20 0.47 0.54 0.53 0.56 0.62 0.59 0.55 0.54 0.55 0.59 0.60 0.61 0.62 0.58 0.57 0.57 0.60 0.61 0.62 0.68 0.75 0.82 0.84 0.81 0.73 0.69 0.72 0.70 0.62 0.46 0.38 0.34 0.32 0.34 0.42 0.44 0.39 0.36 0.35 0.45 0.48
0.11 0.20 0.38 0.49 0.50 0.59 0.63 0.58 0.54 0.51 0.51 0.54 0.58 0.59 0.59 0.58 0.57 0.59 0.61 0.62 0.68 0.73 0.77 0.80 0.75 0.70 0.68 0.69 0.66 0.64 0.62 0.48 0.34 0.28 0.26 0.31 0.44 0.52 0.50 0.43 0.41 0.46 0.47
0.14 0.20 0.27 0.44 0.49 0.60 0.64 0.60 0.58 0.55 0.52 0.56 0.60 0.59 0.60 0.64 0.64 0.60 0.59 0.66 0.70 0.78 0.85 0.79 0.72 0.70 0.70 0.68 0.59 0.58 0.58 0.49 0.35 0.26 0.18 0.28 0.49 0.66 0.58 0.51 0.45 0.46 0.47
0.14 0.18 0.30 0.47 0.52 0.61 0.68 0.70 0.67 0.64 0.62 0.61 0.62 0.58 0.60 0.64 0.66 0.63 0.62 0.67 0.70 0.74 0.74 0.74 0.72 0.74 0.71 0.65 0.56 0.53 0.60 0.58 0.39 0.19 0.18 0.23 0.42 0.80 0.61 0.54 0.50 0.46 0.46
0.14 0.19 0.33 0.53 0.64 0.69 0.71 0.77 0.75 0.72 0.73 0.73 0.68 0.66 0.70 0.72 0.72 0.66 0.63 0.63 0.65 0.69 0.71 0.66 0.67 0.70 0.71 0.65 0.57 0.56 0.66 0.69 0.38 0.19 0.22 0.26 0.41 0.78 0.69 0.61 0.54 0.48 0.48
0.14 0.22 0.35 0.60 0.77 0.77 0.76 0.80 0.81 0.83 0.86 0.87 0.84 0.83 0.83 0.83 0.82 0.80 0.75 0.67 0.62 0.61 0.64 0.65 0.65 0.67 0.71 0.67 0.62 0.69 0.75 0.69 0.39 0.34 0.27 0.27 0.44 0.73 0.78 0.72 0.62 0.55 0.50
0.18 0.27 0.42 0.74 0.88 0.86 0.86 0.90 0.90 0.90 0.92 0.93 0.93 0.93 0.91 0.87 0.86 0.91 0.87 0.73 0.62 0.53 0.51 0.54 0.57 0.62 0.64 0.64 0.67 0.77 0.75 0.51 0.26 0.20 0.19 0.25 0.44 0.73 0.99 0.93 0.74 0.63 0.55
0.28 0.35 0.52 0.74 0.93 1.00 1.00 0.98 0.93 0.94 0.94 0.93 0.93 0.95 0.92 0.85 0.86 0.88 0.86 0.76 0.64 0.56 0.52 0.50 0.50 0.55 0.56 0.60 0.64 0.64 0.55 0.38 0.23 0.25 0.21 0.28 0.44 0.82 1.16 1.11 0.89 0.72 0.63
0.41 0.50 0.64 0.80 0.91 0.96 1.02 1.02 0.96 0.91 0.91 0.90 0.89 0.92 0.83 0.79 0.79 0.81 0.76 0.70 0.63 0.62 0.59 0.52 0.49 0.50 0.47 0.46 0.49 0.49 0.42 0.33 0.23 0.27 0.32 0.32 0.36 0.77 1.20 1.20 1.06 0.90 0.78
0.60 0.73 0.83 0.96 1.04 1.09 1.10 1.04 1.05 1.00 0.97 0.93 0.89 0.88 0.84 0.80 0.78 0.75 0.69 0.65 0.63 0.63 0.58 0.53 0.48 0.48 0.44 0.40 0.39 0.39 0.35 0.28 0.26 0.32 0.35 0.32 0.41 0.80 1.25 1.33 1.22 1.09 1.01
0.61 0.76 0.87 1.03 1.12 1.20 1.17 1.19 1.20 1.07 1.00 0.94 0.84 0.78 0.81 0.82 0.80 0.73 0.70 0.64 0.62 0.63 0.62 0.62 0.56 0.49 0.43 0.37 0.41 0.42 0.34 0.29 0.31 0.27 0.26 0.26 0.45 0.84 1.21 1.35 1.32 1.20 1.16
0.62 0.78 0.93 1.05 1.20 1.27 1.25 1.26 1.24 1.16 1.08 1.02 0.91 0.88 0.92 0.93 0.88 0.83 0.77 0.71 0.69 0.67 0.72 0.73 0.75 0.63 0.57 0.52 0.52 0.46 0.37 0.36 0.33 0.29 0.23 0.25 0.39 0.72 1.11 1.32 1.39 1.40 1.38
0.78 0.88 1.05 1.22 1.35 1.39 1.36 1.32 1.25 1.16 1.08 1.06 1.01 1.00 1.02 1.00 0.91 0.83 0.79 0.71 0.69 0.70 0.72 0.77 0.80 0.74 0.69 0.62 0.59 0.55 0.49 0.41 0.35 0.34 0.29 0.27 0.30 0.50 0.78 1.05 1.28 1.48 1.56
0.80 0.95 1.15 1.31 1.44 1.50 1.56 1.52 1.36 1.23 1.10 1.05 1.06 0.98 0.93 0.92 0.87 0.79 0.73 0.66 0.60 0.60 0.61 0.64 0.67 0.69 0.68 0.64 0.62 0.57 0.57 0.52 0.43 0.37 0.32 0.30 0.28 0.35 0.51 0.74 1.02 1.40 1.64
0.78 0.96 1.18 1.40 1.56 1.64 1.59 1.61 1.55 1.45 1.28 1.17 1.08 1.02 0.93 0.89 0.84 0.76 0.67 0.59 0.52 0.49 0.47 0.47 0.46 0.51 0.56 0.54 0.51 0.49 0.46 0.47 0.48 0.46 0.41 0.38 0.29 0.30 0.38 0.58 0.83 1.14 1.49
0.77 1.03 1.26 1.50 1.71 1.77 1.69 1.62 1.67 1.69 1.57 1.41 1.24 1.11 1.03 0.95 0.87 0.84 0.79 0.72 0.65 0.59 0.54 0.51 0.46 0.44 0.46 0.47 0.47 0.48 0.44 0.42 0.45 0.49 0.49 0.46 0.39 0.32 0.32 0.45 0.65 0.90 1.23
0.86 1.04 1.33 1.57 1.73 1.73 1.76 1.79 1.74 1.79 1.76 1.57 1.38 1.26 1.14 1.02 0.92 0.90 0.86 0.76 0.74 0.76 0.71 0.67 0.61 0.56 0.50 0.45 0.45 0.48 0.48 0.45 0.45 0.47 0.50 0.48 0.47 0.39 0.34 0.36 0.51 0.73 1.01
0.89 1.01 1.24 1.51 1.63 1.68 1.75 1.88 1.94 1.94 1.88 1.70 1.51 1.37 1.27 1.15 1.00 0.91 0.89 0.82 0.74 0.74 0.73 0.74 0.72 0.69 0.65 0.58 0.53 0.51 0.52 0.49 0.46 0.47 0.50 0.51 0.52 0.50 0.47 0.38 0.40 0.53 0.77
1.00 1.11 1.27 1.54 1.69 1.81 1.89 1.92 2.02 2.04 1.99 1.91 1.75 1.55 1.45 1.34 1.19 1.04 0.94 0.90 0.86 0.82 0.77 0.71 0.70 0.72 0.71 0.66 0.62 0.57 0.56 0.55 0.53 0.50 0.54 0.62 0.61 0.54 0.54 0.53 0.46 0.41 0.48
1.04 1.15 1.28 1.54 1.64 1.78 1.80 1.75 1.67 1.76 1.79 1.83 1.85 1.79 1.68 1.57 1.43 1.28 1.13 1.03 1.01 0.93 0.86 0.76 0.70 0.70 0.69 0.68 0.68 0.63 0.58 0.53 0.47 0.43 0.46 0.58 0.70 0.71 0.66 0.67 0.69 0.59 0.49
0.98 1.11 1.26 1.46 1.58 1.61 1.54 1.52 1.54 1.55 1.62 1.69 1.77 1.84 1.84 1.74 1.58 1.45 1.31 1.16 1.04 1.00 0.93 0.85 0.76 0.72 0.69 0.64 0.67 0.71 0.63 0.58 0.50 0.39 0.33 0.40 0.51 0.60 0.63 0.65 0.72 0.77 0.68
0.98 1.07 1.20 1.38 1.49 1.60 1.65 1.68 1.69 1.80 1.82 1.74 1.67 1.72 1.79 1.76 1.65 1.53 1.43 1.35 1.24 1.11 1.02 0.96 0.90 0.84 0.78 0.70 0.63 0.81 0.85 0.65 0.47 0.35 0.31 0.32 0.34 0.39 0.44 0.50 0.58 0.65 0.74
0.96 1.11 1.26 1.42 1.59 1.64 1.74 1.71 1.55 1.50 1.56 1.49 1.47 1.47 1.60 1.74 1.72 1.60 1.56 1.52 1.40 1.27 1.11 1.00 0.99 0.98 0.96 0.91 0.79 0.71 0.70 0.65 0.68 0.50 0.30 0.27 0.25 0.26 0.28 0.33 0.41 0.46 0.57
1.01 1.11 1.31 1.44 1.63 1.72 1.73 1.71 1.54 1.41 1.35 1.43 1.55 1.60 1.58 1.60 1.71 1.67 1.57 1.55 1.49 1.36 1.27 1.17 1.03 1.03 1.05 1.04 0.97 0.85 0.75 0.64 0.61 0.70 0.50 0.32 0.31 0.28 0.28 0.30 0.33 0.37 0.45
0.97 1.10 1.24 1.46 1.59 1.77 1.77 1.70 1.51 1.34 1.26 1.33 1.43 1.62 1.70 1.69 1.72 1.74 1.65 1.58 1.49 1.36 1.28 1.28 1.20 1.10 1.05 1.06 1.03 0.97 0.94 0.89 0.72 0.74 0.68 0.45 0.39 0.37 0.36 0.36 0.37 0.39 0.45